Location: Helsinki
(60.1699°N, 24.9384°E)
Time: 14:27:42
(UTC+02:00)

Tiros 1 - Pass Details

Date: 09 October 2022
Orbit: 629 x 662 km, 48.4° (Epoch: 07 December)

Event Time Altitude Azimuth Distance (km) Brightness Sun altitude
Rises 00:20:29 0° 231° (SW) 2,991 - -35.2°
Reaches altitude 10° 00:23:24 10° 213° (SSW) 2,079 - -35.3°
Maximum altitude 00:26:43 19° 170° (S) 1,576 - -35.4°
Drops below altitude 10° 00:30:01 10° 126° (SE) 2,076 - -35.5°
Sets 00:32:56 0° 108° (ESE) 2,984 - -35.6°
